| time (UTC) | temp F | wind direction | speed MPH | gust MPH | rain 1hr in | rain 24hr in | rain mn in | humidity % | barometer mb |
| 20260507104105 | 52 | 128 | 3.0 | 7.0 | 0.00 | 0.00 | 0.00 | 78 | 1017.2 |
| 20260507103605 | 52 | 91 | 3.0 | 9.0 | 0.00 | 0.00 | 0.00 | 78 | 1017.4 |
| 20260507103105 | 52 | 113 | 3.0 | 9.0 | 0.00 | 0.00 | 0.00 | 77 | 1017.4 |
| 20260507102605 | 52 | 92 | 3.0 | 9.0 | 0.00 | 0.00 | 0.00 | 77 | 1017.3 |
| 20260507102105 | 52 | 132 | 3.0 | 8.0 | 0.00 | 0.00 | 0.00 | 76 | 1017.4 |
| 20260507101605 | 52 | 140 | 2.0 | 7.0 | 0.00 | 0.00 | 0.00 | 76 | 1017.4 |
| 20260507101105 | 52 | 122 | 3.0 | 6.0 | 0.00 | 0.00 | 0.00 | 76 | 1017.3 |
| 20260507100605 | 52 | 130 | 3.0 | 7.0 | 0.00 | 0.00 | 0.00 | 75 | 1017.4 |
| 20260507100105 | 52 | 127 | 2.0 | 7.0 | 0.00 | 0.00 | 0.00 | 75 | 1017.3 |
| 20260507095605 | 52 | 127 | 2.0 | 5.0 | 0.00 | 0.00 | 0.00 | 75 | 1017.3 |
| 20260507095105 | 53 | 112 | 2.0 | 7.0 | 0.00 | 0.00 | 0.00 | 74 | 1017.3 |
| 20260507094605 | 53 | 123 | 2.0 | 7.0 | 0.00 | 0.00 | 0.00 | 74 | 1017.3 |
| 20260507094105 | 53 | 86 | 2.0 | 5.0 | 0.00 | 0.00 | 0.00 | 74 | 1017.3 |
| 20260507093605 | 53 | 131 | 1.0 | 4.0 | 0.00 | 0.00 | 0.00 | 74 | 1017.1 |
| 20260507093105 | 53 | 131 | 2.0 | 4.0 | 0.00 | 0.00 | 0.00 | 74 | 1017.2 |
| 20260507092605 | 53 | 129 | 3.0 | 7.0 | 0.00 | 0.00 | 0.00 | 74 | 1017.0 |
| 20260507092105 | 53 | 127 | 3.0 | 9.0 | 0.00 | 0.00 | 0.00 | 74 | 1016.7 |
| 20260507091605 | 53 | 136 | 4.0 | 9.0 | 0.00 | 0.00 | 0.00 | 73 | 1016.7 |
| 20260507091105 | 54 | 119 | 4.0 | 12.0 | 0.00 | 0.00 | 0.00 | 73 | 1016.6 |
| 20260507090605 | 54 | 141 | 3.0 | 9.0 | 0.00 | 0.00 | 0.00 | 72 | 1016.8 |
| 20260507090105 | 54 | 138 | 4.0 | 8.0 | 0.00 | 0.00 | 0.00 | 72 | 1016.8 |
| 20260507085605 | 54 | 128 | 5.0 | 10.0 | 0.00 | 0.00 | 0.00 | 72 | 1016.5 |
| 20260507085105 | 54 | 105 | 5.0 | 10.0 | 0.00 | 0.00 | 0.00 | 71 | 1016.4 |
| 20260507084605 | 54 | 126 | 4.0 | 11.0 | 0.00 | 0.00 | 0.00 | 71 | 1016.2 |
| 20260507084105 | 54 | 128 | 4.0 | 11.0 | 0.00 | 0.00 | 0.00 | 71 | 1016.1 |
| 20260507083605 | 54 | 119 | 6.0 | 11.0 | 0.00 | 0.00 | 0.00 | 70 | 1016.3 |
| 20260507083105 | 54 | 126 | 6.0 | 11.0 | 0.00 | 0.00 | 0.00 | 70 | 1016.2 |
| 20260507082605 | 54 | 132 | 5.0 | 11.0 | 0.00 | 0.00 | 0.00 | 70 | 1015.9 |
| 20260507082105 | 55 | 121 | 3.0 | 9.0 | 0.00 | 0.00 | 0.00 | 69 | 1015.9 |
| 20260507081605 | 55 | 136 | 3.0 | 10.0 | 0.00 | 0.00 | 0.00 | 69 | 1016.0 |
| 20260507081105 | 55 | 126 | 3.0 | 12.0 | 0.00 | 0.00 | 0.00 | 68 | 1016.1 |
| 20260507080605 | 55 | 124 | 3.0 | 8.0 | 0.00 | 0.00 | 0.00 | 68 | 1016.2 |
| 20260507080105 | 55 | 107 | 2.0 | 8.0 | 0.00 | 0.00 | 0.00 | 68 | 1016.2 |
| 20260507075605 | 55 | 130 | 2.0 | 7.0 | 0.00 | 0.00 | 0.00 | 67 | 1016.0 |
| 20260507075105 | 56 | 120 | 2.0 | 5.0 | 0.00 | 0.00 | 0.00 | 67 | 1015.9 |
| 20260507074605 | 56 | 121 | 2.0 | 6.0 | 0.00 | 0.00 | 0.00 | 66 | 1015.9 |
| 20260507074105 | 56 | 121 | 3.0 | 10.0 | 0.00 | 0.00 | 0.00 | 66 | 1015.9 |
| 20260507073605 | 56 | 61 | 4.0 | 11.0 | 0.00 | 0.00 | 0.00 | 66 | 1015.7 |
| 20260507073105 | 56 | 103 | 4.0 | 10.0 | 0.00 | 0.00 | 0.00 | 66 | 1015.8 |
| 20260507072605 | 56 | 115 | 5.0 | 11.0 | 0.00 | 0.00 | 0.00 | 65 | 1015.7 |
| 20260507072105 | 56 | 111 | 7.0 | 11.0 | 0.00 | 0.00 | 0.00 | 65 | 1015.5 |
| 20260507071605 | 56 | 133 | 6.0 | 12.0 | 0.00 | 0.00 | 0.00 | 65 | 1015.4 |
| 20260507071105 | 57 | 128 | 5.0 | 10.0 | 0.00 | 0.00 | 0.00 | 65 | 1015.5 |
| 20260507070605 | 57 | 123 | 6.0 | 9.0 | 0.00 | 0.00 | 0.00 | 65 | 1015.3 |
| 20260507070105 | 57 | 109 | 5.0 | 10.0 | 0.00 | 0.00 | 0.00 | 65 | 1015.2 |
| 20260507065605 | 57 | 134 | 3.0 | 10.0 | 0.00 | 0.00 | 0.00 | 65 | 1015.2 |
| 20260507065105 | 57 | 130 | 3.0 | 7.0 | 0.00 | 0.00 | 0.00 | 65 | 1015.1 |
| 20260507064605 | 57 | 134 | 3.0 | 8.0 | 0.00 | 0.00 | 0.00 | 64 | 1015.0 |
| 20260507064105 | 57 | 110 | 4.0 | 8.0 | 0.00 | 0.00 | 0.00 | 64 | 1014.9 |
| 20260507063605 | 57 | 126 | 4.0 | 8.0 | 0.00 | 0.00 | 0.00 | 64 | 1014.8 |
| 20260507063105 | 57 | 130 | 4.0 | 9.0 | 0.00 | 0.00 | 0.00 | 63 | 1014.7 |
| 20260507062605 | 58 | 124 | 4.0 | 10.0 | 0.00 | 0.00 | 0.00 | 63 | 1014.8 |
| 20260507062105 | 58 | 125 | 4.0 | 8.0 | 0.00 | 0.00 | 0.00 | 63 | 1014.8 |
| 20260507061605 | 58 | 128 | 4.0 | 8.0 | 0.00 | 0.00 | 0.00 | 62 | 1014.8 |
| 20260507061105 | 58 | 121 | 3.0 | 8.0 | 0.00 | 0.00 | 0.00 | 62 | 1014.7 |
| 20260507060605 | 58 | 126 | 2.0 | 9.0 | 0.00 | 0.00 | 0.00 | 62 | 1014.6 |
| 20260507060105 | 58 | 105 | 2.0 | 7.0 | 0.00 | 0.00 | 0.00 | 61 | 1014.6 |
| 20260507055605 | 59 | 131 | 1.0 | 5.0 | 0.00 | 0.00 | 0.00 | 61 | 1014.5 |
| 20260507055105 | 59 | 129 | 0.0 | 2.0 | 0.00 | 0.00 | 0.00 | 60 | 1014.4 |
| 20260507054605 | 59 | 136 | 1.0 | 3.0 | 0.00 | 0.00 | 0.00 | 60 | 1014.3 |
| 20260507054105 | 59 | 138 | 1.0 | 2.0 | 0.00 | 0.00 | 0.00 | 60 | 1014.1 |
| 20260507053605 | 60 | 137 | 2.0 | 4.0 | 0.00 | 0.00 | 0.00 | 59 | 1013.9 |
| 20260507053105 | 60 | 134 | 3.0 | 8.0 | 0.00 | 0.00 | 0.00 | 59 | 1013.9 |
| 20260507052605 | 60 | 134 | 3.0 | 7.0 | 0.00 | 0.00 | 0.00 | 59 | 1013.9 |
| 20260507052105 | 60 | 137 | 3.0 | 8.0 | 0.00 | 0.00 | 0.00 | 58 | 1013.8 |
| 20260507051605 | 60 | 105 | 4.0 | 8.0 | 0.00 | 0.00 | 0.00 | 58 | 1013.7 |
| 20260507051105 | 61 | 123 | 5.0 | 10.0 | 0.00 | 0.00 | 0.00 | 57 | 1013.7 |
| 20260507050605 | 61 | 133 | 7.0 | 10.0 | 0.00 | 0.00 | 0.00 | 57 | 1013.5 |
| 20260507050105 | 61 | 139 | 7.0 | 12.0 | 0.00 | 0.00 | 0.00 | 57 | 1013.5 |
| 20260507045605 | 61 | 126 | 7.0 | 12.0 | 0.00 | 0.00 | 0.00 | 57 | 1013.4 |
| 20260507045105 | 61 | 148 | 8.0 | 14.0 | 0.00 | 0.00 | 0.00 | 56 | 1013.5 |
| 20260507044605 | 61 | 146 | 6.0 | 15.0 | 0.00 | 0.00 | 0.00 | 56 | 1013.2 |
| 20260507044105 | 61 | 138 | 5.0 | 10.0 | 0.00 | 0.00 | 0.00 | 55 | 1013.2 |
| 20260507043605 | 62 | 159 | 7.0 | 11.0 | 0.00 | 0.00 | 0.00 | 55 | 1013.1 |
| 20260507043105 | 62 | 148 | 7.0 | 14.0 | 0.00 | 0.00 | 0.00 | 55 | 1013.0 |
| 20260507042605 | 62 | 128 | 6.0 | 14.0 | 0.00 | 0.00 | 0.00 | 54 | 1013.0 |
| 20260507042106 | 62 | 132 | 7.0 | 11.0 | 0.00 | 0.00 | 0.00 | 54 | 1012.9 |
| 20260507041605 | 62 | 144 | 7.0 | 13.0 | 0.00 | 0.00 | 0.00 | 54 | 1012.8 |
| 20260507041105 | 62 | 124 | 8.0 | 13.0 | 0.00 | 0.00 | 0.00 | 53 | 1012.9 |
| 20260507040605 | 63 | 134 | 9.0 | 15.0 | 0.00 | 0.00 | 0.00 | 53 | 1012.8 |
| 20260507040106 | 63 | 132 | 9.0 | 14.0 | 0.00 | 0.00 | 0.00 | 53 | 1012.7 |
| 20260507035606 | 63 | 114 | 9.0 | 16.0 | 0.00 | 0.00 | 0.00 | 52 | 1012.7 |
| 20260507035106 | 63 | 160 | 9.0 | 16.0 | 0.00 | 0.00 | 0.00 | 52 | 1012.5 |
| 20260507034606 | 63 | 137 | 9.0 | 14.0 | 0.00 | 0.00 | 0.00 | 52 | 1012.4 |
| 20260507034106 | 63 | 155 | 9.0 | 18.0 | 0.00 | 0.00 | 0.00 | 51 | 1012.3 |
| 20260507033606 | 64 | 134 | 10.0 | 15.0 | 0.00 | 0.00 | 0.00 | 51 | 1012.2 |
| 20260507033106 | 64 | 138 | 10.0 | 17.0 | 0.00 | 0.00 | 0.00 | 51 | 1012.1 |
| 20260507032606 | 64 | 135 | 9.0 | 13.0 | 0.00 | 0.00 | 0.00 | 50 | 1011.9 |
| 20260507032106 | 64 | 132 | 9.0 | 15.0 | 0.00 | 0.00 | 0.00 | 50 | 1011.8 |
| 20260507031606 | 64 | 134 | 9.0 | 14.0 | 0.00 | 0.00 | 0.00 | 50 | 1011.7 |
| 20260507031106 | 65 | 146 | 9.0 | 16.0 | 0.00 | 0.00 | 0.00 | 49 | 1011.5 |
| 20260507030606 | 65 | 117 | 9.0 | 15.0 | 0.00 | 0.00 | 0.00 | 48 | 1011.4 |
| 20260507030106 | 65 | 119 | 10.0 | 15.0 | 0.00 | 0.00 | 0.00 | 48 | 1011.3 |
| 20260507025606 | 65 | 125 | 10.0 | 16.0 | 0.00 | 0.00 | 0.00 | 48 | 1011.4 |
| 20260507025106 | 66 | 143 | 9.0 | 16.0 | 0.00 | 0.00 | 0.00 | 47 | 1011.3 |
| 20260507024606 | 66 | 114 | 8.0 | 14.0 | 0.00 | 0.00 | 0.00 | 47 | 1011.1 |
| 20260507024106 | 66 | 123 | 8.0 | 15.0 | 0.00 | 0.00 | 0.00 | 46 | 1011.1 |
| 20260507023606 | 66 | 132 | 8.0 | 12.0 | 0.00 | 0.00 | 0.00 | 46 | 1011.0 |
| 20260507023106 | 66 | 148 | 8.0 | 12.0 | 0.00 | 0.00 | 0.00 | 46 | 1011.0 |
| 20260507022606 | 67 | 119 | 8.0 | 12.0 | 0.00 | 0.00 | 0.00 | 46 | 1011.0 |
| 20260507022106 | 67 | 120 | 7.0 | 12.0 | 0.00 | 0.00 | 0.00 | 45 | 1010.9 |
| 20260507021606 | 67 | 155 | 7.0 | 11.0 | 0.00 | 0.00 | 0.00 | 45 | 1010.8 |
| 20260507021106 | 67 | 136 | 7.0 | 11.0 | 0.00 | 0.00 | 0.00 | 45 | 1010.8 |
| 20260507020606 | 68 | 137 | 7.0 | 13.0 | 0.00 | 0.00 | 0.00 | 45 | 1010.5 |
| 20260507020106 | 68 | 139 | 7.0 | 12.0 | 0.00 | 0.00 | 0.00 | 44 | 1010.6 |
| 20260507015606 | 68 | 139 | 7.0 | 11.0 | 0.00 | 0.00 | 0.00 | 44 | 1010.5 |
| 20260507015106 | 69 | 130 | 7.0 | 12.0 | 0.00 | 0.00 | 0.00 | 44 | 1010.3 |
| 20260507014606 | 69 | 109 | 7.0 | 13.0 | 0.00 | 0.00 | 0.00 | 43 | 1010.3 |
| 20260507014106 | 69 | 144 | 7.0 | 11.0 | 0.00 | 0.00 | 0.00 | 43 | 1010.2 |
| 20260507013606 | 69 | 133 | 8.0 | 12.0 | 0.00 | 0.00 | 0.00 | 43 | 1010.2 |
| 20260507013106 | 70 | 139 | 9.0 | 16.0 | 0.00 | 0.00 | 0.00 | 42 | 1010.1 |
| 20260507012606 | 70 | 144 | 9.0 | 14.0 | 0.00 | 0.00 | 0.00 | 42 | 1010.0 |
| 20260507012106 | 70 | 163 | 9.0 | 17.0 | 0.00 | 0.00 | 0.00 | 42 | 1009.7 |
| 20260507011606 | 70 | 137 | 9.0 | 15.0 | 0.00 | 0.00 | 0.00 | 42 | 1009.7 |
| 20260507011106 | 71 | 140 | 9.0 | 13.0 | 0.00 | 0.00 | 0.00 | 41 | 1009.6 |
| 20260507010606 | 71 | 141 | 8.0 | 15.0 | 0.00 | 0.00 | 0.00 | 41 | 1009.5 |
| 20260507010106 | 71 | 171 | 8.0 | 15.0 | 0.00 | 0.00 | 0.00 | 41 | 1009.3 |
| 20260507005606 | 71 | 159 | 9.0 | 16.0 | 0.00 | 0.00 | 0.00 | 41 | 1009.4 |
| 20260507005106 | 72 | 172 | 8.0 | 15.0 | 0.00 | 0.00 | 0.00 | 41 | 1009.4 |
| 20260507004606 | 72 | 200 | 8.0 | 17.0 | 0.00 | 0.00 | 0.00 | 41 | 1009.3 |
| 20260507004106 | 72 | 154 | 8.0 | 16.0 | 0.00 | 0.00 | 0.00 | 40 | 1009.4 |
| 20260507003606 | 73 | 153 | 7.0 | 14.0 | 0.00 | 0.00 | 0.00 | 41 | 1009.4 |
| 20260507003106 | 73 | 150 | 8.0 | 15.0 | 0.00 | 0.00 | 0.00 | 40 | 1009.4 |
| 20260507002606 | 73 | 121 | 8.0 | 15.0 | 0.00 | 0.00 | 0.00 | 40 | 1009.4 |
| 20260507002106 | 73 | 142 | 7.0 | 15.0 | 0.00 | 0.00 | 0.00 | 40 | 1009.4 |
| 20260507001606 | 74 | 189 | 6.0 | 17.0 | 0.00 | 0.00 | 0.00 | 40 | 1009.4 |
| 20260507001106 | 74 | 144 | 7.0 | 12.0 | 0.00 | 0.00 | 0.00 | 40 | 1009.3 |
| 20260507000606 | 74 | 154 | 8.0 | 15.0 | 0.00 | 0.00 | 0.00 | 40 | 1009.3 |
| 20260507000106 | 74 | 144 | 7.0 | 14.0 | 0.00 | 0.00 | 0.00 | 39 | 1009.3 |
| 20260506235606 | 74 | 146 | 7.0 | 12.0 | 0.00 | 0.00 | 0.00 | 39 | 1009.3 |
| 20260506235106 | 75 | 125 | 7.0 | 15.0 | 0.00 | 0.00 | 0.00 | 39 | 1009.3 |
| 20260506234606 | 75 | 142 | 6.0 | 13.0 | 0.00 | 0.00 | 0.00 | 39 | 1009.4 |
| 20260506234106 | 75 | 145 | 5.0 | 9.0 | 0.00 | 0.00 | 0.00 | 39 | 1009.4 |
| 20260506233606 | 75 | 161 | 6.0 | 12.0 | 0.00 | 0.00 | 0.00 | 39 | 1009.4 |
| 20260506233106 | 75 | 132 | 7.0 | 12.0 | 0.00 | 0.00 | 0.00 | 39 | 1009.3 |
| 20260506232606 | 75 | 138 | 6.0 | 13.0 | 0.00 | 0.00 | 0.00 | 38 | 1009.3 |
| 20260506232106 | 75 | 142 | 5.0 | 11.0 | 0.00 | 0.00 | 0.00 | 39 | 1009.3 |
| 20260506231606 | 75 | 137 | 6.0 | 12.0 | 0.00 | 0.00 | 0.00 | 38 | 1009.5 |
| 20260506231106 | 76 | 128 | 5.0 | 10.0 | 0.00 | 0.00 | 0.00 | 38 | 1009.5 |
| 20260506230606 | 76 | 188 | 6.0 | 12.0 | 0.00 | 0.00 | 0.00 | 39 | 1009.4 |
| 20260506230106 | 76 | 159 | 6.0 | 15.0 | 0.00 | 0.00 | 0.00 | 38 | 1009.4 |
| 20260506225606 | 77 | 149 | 5.0 | 14.0 | 0.00 | 0.00 | 0.00 | 38 | 1009.3 |
| 20260506225106 | 76 | 140 | 4.0 | 9.0 | 0.00 | 0.00 | 0.00 | 37 | 1009.2 |
| 20260506224606 | 76 | 169 | 3.0 | 9.0 | 0.00 | 0.00 | 0.00 | 37 | 1009.2 |
| 20260506224106 | 76 | 121 | 5.0 | 9.0 | 0.00 | 0.00 | 0.00 | 38 | 1009.2 |
| 20260506223606 | 76 | 132 | 5.0 | 11.0 | 0.00 | 0.00 | 0.00 | 37 | 1009.2 |
| 20260506223106 | 77 | 123 | 4.0 | 13.0 | 0.00 | 0.00 | 0.00 | 37 | 1009.2 |
| 20260506222606 | 77 | 154 | 4.0 | 10.0 | 0.00 | 0.00 | 0.00 | 37 | 1009.2 |
| 20260506222107 | 77 | 134 | 4.0 | 10.0 | 0.00 | 0.00 | 0.00 | 37 | 1009.2 |
| 20260506221606 | 77 | 157 | 5.0 | 9.0 | 0.00 | 0.00 | 0.00 | 37 | 1009.2 |
| 20260506221106 | 76 | 155 | 4.0 | 8.0 | 0.00 | 0.00 | 0.00 | 37 | 1009.2 |
| 20260506220606 | 76 | 149 | 4.0 | 8.0 | 0.00 | 0.00 | 0.00 | 37 | 1009.1 |
| 20260506220106 | 76 | 157 | 5.0 | 11.0 | 0.00 | 0.00 | 0.00 | 37 | 1009.1 |
| 20260506215606 | 76 | 169 | 5.0 | 10.0 | 0.00 | 0.00 | 0.00 | 36 | 1009.1 |
| 20260506215106 | 77 | 118 | 3.0 | 9.0 | 0.00 | 0.00 | 0.00 | 36 | 1009.1 |
| 20260506214606 | 77 | 139 | 3.0 | 9.0 | 0.00 | 0.00 | 0.00 | 36 | 1009.2 |
| 20260506214106 | 77 | 136 | 4.0 | 9.0 | 0.00 | 0.00 | 0.00 | 36 | 1009.1 |
| 20260506213606 | 77 | 138 | 3.0 | 10.0 | 0.00 | 0.00 | 0.00 | 36 | 1009.3 |
| 20260506213106 | 77 | 145 | 2.0 | 8.0 | 0.00 | 0.00 | 0.00 | 36 | 1009.3 |
| 20260506212606 | 76 | 138 | 1.0 | 9.0 | 0.00 | 0.00 | 0.00 | 37 | 1009.3 |
| 20260506212106 | 76 | 148 | 2.0 | 2.0 | 0.00 | 0.00 | 0.00 | 37 | 1009.4 |
| 20260506211606 | 75 | 141 | 4.0 | 9.0 | 0.00 | 0.00 | 0.00 | 38 | 1009.4 |
| 20260506211106 | 76 | 116 | 3.0 | 11.0 | 0.00 | 0.00 | 0.00 | 38 | 1009.4 |
| 20260506210606 | 76 | 125 | 2.0 | 4.0 | 0.00 | 0.00 | 0.00 | 39 | 1009.5 |
| 20260506210106 | 75 | 153 | 3.0 | 8.0 | 0.00 | 0.00 | 0.00 | 39 | 1009.6 |
| 20260506205606 | 75 | 132 | 3.0 | 8.0 | 0.00 | 0.00 | 0.00 | 40 | 1009.6 |
| 20260506205106 | 74 | 171 | 3.0 | 7.0 | 0.00 | 0.00 | 0.00 | 40 | 1009.7 |
| 20260506204606 | 74 | 134 | 3.0 | 7.0 | 0.00 | 0.00 | 0.00 | 40 | 1009.8 |
| 20260506204106 | 74 | 160 | 2.0 | 11.0 | 0.00 | 0.00 | 0.00 | 40 | 1009.8 |
| 20260506203606 | 74 | 124 | 3.0 | 7.0 | 0.00 | 0.00 | 0.00 | 40 | 1009.8 |
| 20260506203106 | 74 | 161 | 4.0 | 8.0 | 0.00 | 0.00 | 0.00 | 42 | 1009.8 |
| 20260506202606 | 74 | 155 | 4.0 | 11.0 | 0.00 | 0.00 | 0.00 | 42 | 1009.9 |
| 20260506202106 | 73 | 173 | 4.0 | 9.0 | 0.00 | 0.00 | 0.00 | 42 | 1009.9 |
| 20260506201606 | 73 | 128 | 4.0 | 9.0 | 0.00 | 0.00 | 0.00 | 42 | 1009.8 |
| 20260506201106 | 73 | 157 | 5.0 | 8.0 | 0.00 | 0.00 | 0.00 | 42 | 1009.9 |
| 20260506200606 | 73 | 163 | 4.0 | 11.0 | 0.00 | 0.00 | 0.00 | 42 | 1009.9 |
| 20260506200106 | 73 | 118 | 4.0 | 7.0 | 0.00 | 0.00 | 0.00 | 42 | 1009.8 |
| 20260506195606 | 72 | 146 | 5.0 | 10.0 | 0.00 | 0.00 | 0.00 | 43 | 1010.0 |
| 20260506195106 | 72 | 153 | 4.0 | 10.0 | 0.00 | 0.00 | 0.00 | 43 | 1010.0 |
| 20260506194606 | 73 | 142 | 2.0 | 5.0 | 0.00 | 0.00 | 0.00 | 43 | 1010.1 |
| 20260506194106 | 72 | 119 | 2.0 | 4.0 | 0.00 | 0.00 | 0.00 | 44 | 1010.1 |
| 20260506193607 | 72 | 43 | 2.0 | 7.0 | 0.00 | 0.00 | 0.00 | 44 | 1010.4 |
| 20260506193107 | 72 | 149 | 2.0 | 8.0 | 0.00 | 0.00 | 0.00 | 44 | 1010.5 |
| 20260506192606 | 71 | 128 | 2.0 | 7.0 | 0.00 | 0.00 | 0.00 | 44 | 1010.6 |
| 20260506192107 | 71 | 108 | 2.0 | 8.0 | 0.00 | 0.00 | 0.00 | 45 | 1010.7 |
| 20260506191607 | 70 | 146 | 3.0 | 5.0 | 0.00 | 0.00 | 0.00 | 46 | 1010.6 |
| 20260506191107 | 70 | 128 | 4.0 | 9.0 | 0.00 | 0.00 | 0.00 | 47 | 1010.8 |
| 20260506190607 | 69 | 120 | 4.0 | 10.0 | 0.00 | 0.00 | 0.00 | 47 | 1010.7 |
| 20260506190107 | 69 | 134 | 3.0 | 10.0 | 0.00 | 0.00 | 0.00 | 48 | 1010.9 |
| 20260506185607 | 70 | 49 | 3.0 | 7.0 | 0.00 | 0.00 | 0.00 | 47 | 1011.0 |
| 20260506185107 | 69 | 125 | 2.0 | 8.0 | 0.00 | 0.00 | 0.00 | 48 | 1011.0 |
| 20260506184607 | 69 | 124 | 2.0 | 4.0 | 0.00 | 0.00 | 0.00 | 47 | 1011.2 |
| 20260506184107 | 69 | 117 | 2.0 | 6.0 | 0.00 | 0.00 | 0.00 | 48 | 1011.2 |
| 20260506183607 | 68 | 117 | 1.0 | 3.0 | 0.00 | 0.00 | 0.00 | 49 | 1011.2 |
| 20260506183107 | 67 | 119 | 2.0 | 4.0 | 0.00 | 0.00 | 0.00 | 50 | 1011.2 |
| 20260506182607 | 67 | 126 | 3.0 | 9.0 | 0.00 | 0.00 | 0.00 | 50 | 1011.2 |
| 20260506182107 | 66 | 126 | 4.0 | 8.0 | 0.00 | 0.00 | 0.00 | 51 | 1011.4 |
| 20260506181607 | 65 | 61 | 4.0 | 9.0 | 0.00 | 0.00 | 0.00 | 53 | 1011.4 |
| 20260506181107 | 65 | 59 | 3.0 | 5.0 | 0.00 | 0.00 | 0.00 | 52 | 1011.4 |
| 20260506180607 | 66 | 49 | 3.0 | 5.0 | 0.00 | 0.00 | 0.00 | 52 | 1011.4 |
| 20260506180107 | 65 | 125 | 4.0 | 10.0 | 0.00 | 0.00 | 0.00 | 51 | 1011.4 |
| 20260506175607 | 65 | 132 | 4.0 | 11.0 | 0.00 | 0.00 | 0.00 | 53 | 1011.4 |
| 20260506175107 | 65 | 134 | 4.0 | 11.0 | 0.00 | 0.00 | 0.00 | 53 | 1011.7 |
| 20260506174607 | 64 | 146 | 4.0 | 11.0 | 0.00 | 0.00 | 0.00 | 54 | 1011.8 |
| 20260506174107 | 64 | 115 | 4.0 | 12.0 | 0.00 | 0.00 | 0.00 | 54 | 1011.8 |
| 20260506173607 | 64 | 128 | 3.0 | 9.0 | 0.00 | 0.00 | 0.00 | 55 | 1011.7 |
| 20260506173107 | 63 | 148 | 3.0 | 8.0 | 0.00 | 0.00 | 0.00 | 56 | 1011.6 |
| 20260506172607 | 63 | 157 | 4.0 | 8.0 | 0.00 | 0.00 | 0.00 | 56 | 1011.7 |
| 20260506172107 | 62 | 134 | 5.0 | 13.0 | 0.00 | 0.00 | 0.00 | 56 | 1011.7 |
| 20260506171607 | 62 | 84 | 6.0 | 11.0 | 0.00 | 0.00 | 0.00 | 57 | 1011.7 |
| 20260506171107 | 62 | 128 | 6.0 | 10.0 | 0.00 | 0.00 | 0.00 | 58 | 1011.6 |
| 20260506170607 | 61 | 125 | 5.0 | 13.0 | 0.00 | 0.00 | 0.00 | 58 | 1011.5 |
| 20260506170107 | 61 | 130 | 3.0 | 8.0 | 0.00 | 0.00 | 0.00 | 59 | 1011.4 |
| 20260506165607 | 60 | 79 | 3.0 | 9.0 | 0.00 | 0.00 | 0.00 | 60 | 1011.4 |
| 20260506165107 | 60 | 95 | 3.0 | 7.0 | 0.00 | 0.00 | 0.00 | 62 | 1011.5 |
| 20260506164607 | 59 | 91 | 6.0 | 7.0 | 0.00 | 0.00 | 0.00 | 62 | 1011.8 |
| 20260506164107 | 58 | 66 | 7.0 | 14.0 | 0.00 | 0.00 | 0.00 | 62 | 1011.9 |
| 20260506163607 | 59 | 119 | 5.0 | 14.0 | 0.00 | 0.00 | 0.00 | 62 | 1012.0 |
| 20260506163107 | 59 | 130 | 4.0 | 13.0 | 0.00 | 0.00 | 0.00 | 63 | 1011.7 |
| 20260506162607 | 58 | 128 | 4.0 | 10.0 | 0.00 | 0.00 | 0.00 | 64 | 1011.8 |
| 20260506162107 | 58 | 173 | 4.0 | 10.0 | 0.00 | 0.00 | 0.00 | 64 | 1011.7 |
| 20260506161607 | 57 | 184 | 5.0 | 11.0 | 0.00 | 0.00 | 0.00 | 65 | 1011.6 |
| 20260506161107 | 57 | 130 | 5.0 | 16.0 | 0.00 | 0.00 | 0.00 | 65 | 1011.7 |
| 20260506160607 | 57 | 116 | 4.0 | 10.0 | 0.00 | 0.00 | 0.00 | 67 | 1011.7 |
| 20260506160107 | 56 | 121 | 4.0 | 12.0 | 0.00 | 0.00 | 0.00 | 69 | 1011.8 |
| 20260506155607 | 55 | 107 | 5.0 | 9.0 | 0.00 | 0.00 | 0.00 | 69 | 1011.6 |
| 20260506155107 | 54 | 114 | 5.0 | 14.0 | 0.00 | 0.00 | 0.00 | 71 | 1011.6 |
| 20260506154607 | 54 | 115 | 4.0 | 12.0 | 0.00 | 0.00 | 0.00 | 72 | 1011.6 |
| 20260506154107 | 53 | 118 | 4.0 | 14.0 | 0.00 | 0.00 | 0.00 | 72 | 1011.7 |
| 20260506153607 | 53 | 113 | 3.0 | 11.0 | 0.00 | 0.00 | 0.00 | 73 | 1011.7 |
| 20260506153107 | 53 | 121 | 4.0 | 11.0 | 0.00 | 0.00 | 0.00 | 74 | 1011.7 |
| 20260506152607 | 52 | 113 | 4.0 | 9.0 | 0.00 | 0.00 | 0.00 | 74 | 1011.6 |
| 20260506152107 | 52 | 113 | 3.0 | 8.0 | 0.00 | 0.00 | 0.00 | 74 | 1011.5 |
| 20260506151607 | 52 | 62 | 3.0 | 8.0 | 0.00 | 0.00 | 0.00 | 74 | 1011.6 |
| 20260506151107 | 52 | 79 | 3.0 | 5.0 | 0.00 | 0.00 | 0.00 | 74 | 1011.6 |
| 20260506150607 | 52 | 89 | 4.0 | 11.0 | 0.00 | 0.00 | 0.00 | 75 | 1011.8 |
| 20260506150107 | 52 | 107 | 5.0 | 10.0 | 0.00 | 0.00 | 0.00 | 75 | 1011.6 |
| 20260506145607 | 52 | 103 | 5.0 | 15.0 | 0.00 | 0.00 | 0.00 | 75 | 1011.5 |
| 20260506145107 | 52 | 125 | 4.0 | 8.0 | 0.00 | 0.00 | 0.00 | 75 | 1011.5 |
| 20260506144607 | 52 | 78 | 3.0 | 11.0 | 0.00 | 0.00 | 0.00 | 76 | 1011.4 |
| 20260506144107 | 51 | 127 | 3.0 | 5.0 | 0.00 | 0.00 | 0.00 | 76 | 1011.5 |
| 20260506143607 | 51 | 91 | 3.0 | 7.0 | 0.00 | 0.00 | 0.00 | 76 | 1011.4 |
| 20260506143109 | 51 | 93 | 4.0 | 7.0 | 0.00 | 0.00 | 0.00 | 76 | 1011.2 |
| 20260506142607 | 51 | 65 | 5.0 | 12.0 | 0.00 | 0.00 | 0.00 | 76 | 1011.2 |
| 20260506142107 | 51 | 107 | 5.0 | 15.0 | 0.00 | 0.00 | 0.00 | 76 | 1011.1 |
| 20260506141607 | 51 | 108 | 4.0 | 15.0 | 0.00 | 0.00 | 0.00 | 76 | 1011.1 |
| 20260506141107 | 51 | 107 | 4.0 | 8.0 | 0.00 | 0.00 | 0.00 | 77 | 1011.0 |
| 20260506140607 | 51 | 98 | 4.0 | 12.0 | 0.00 | 0.00 | 0.00 | 76 | 1010.9 |
| 20260506140107 | 51 | 82 | 3.0 | 10.0 | 0.00 | 0.00 | 0.00 | 76 | 1010.9 |
| 20260506135607 | 51 | 109 | 4.0 | 5.0 | 0.00 | 0.00 | 0.00 | 76 | 1010.9 |
| 20260506135107 | 51 | 133 | 4.0 | 10.0 | 0.00 | 0.00 | 0.00 | 76 | 1010.9 |
| 20260506134607 | 51 | 109 | 4.0 | 12.0 | 0.00 | 0.00 | 0.00 | 76 | 1010.9 |
| 20260506134107 | 51 | 137 | 4.0 | 11.0 | 0.00 | 0.00 | 0.00 | 76 | 1010.8 |
| 20260506133607 | 51 | 118 | 4.0 | 13.0 | 0.00 | 0.00 | 0.00 | 75 | 1010.9 |
| 20260506133107 | 51 | 117 | 5.0 | 9.0 | 0.00 | 0.00 | 0.00 | 75 | 1010.8 |
| 20260506132610 | 51 | 117 | 5.0 | 13.0 | 0.00 | 0.00 | 0.00 | 75 | 1010.2 |
| 20260506132109 | 51 | 178 | 4.0 | 15.0 | 0.00 | 0.00 | 0.00 | 75 | 1010.2 |
| 20260506131607 | 51 | 86 | 3.0 | 7.0 | 0.00 | 0.00 | 0.00 | 75 | 1010.2 |
| 20260506131107 | 51 | 95 | 3.0 | 7.0 | 0.00 | 0.00 | 0.00 | 75 | 1010.0 |
| 20260506130607 | 51 | 92 | 3.0 | 9.0 | 0.00 | 0.00 | 0.00 | 74 | 1010.0 |
| 20260506130107 | 51 | 110 | 3.0 | 11.0 | 0.00 | 0.00 | 0.00 | 74 | 1009.8 |
| 20260506125607 | 51 | 94 | 4.0 | 7.0 | 0.00 | 0.00 | 0.00 | 74 | 1009.6 |
| 20260506125107 | 51 | 101 | 3.0 | 8.0 | 0.00 | 0.00 | 0.00 | 74 | 1009.5 |
| 20260506124607 | 51 | 71 | 3.0 | 7.0 | 0.00 | 0.00 | 0.00 | 74 | 1009.6 |
| 20260506124107 | 51 | 144 | 3.0 | 8.0 | 0.00 | 0.00 | 0.00 | 74 | 1009.4 |
| 20260506123607 | 51 | 101 | 3.0 | 6.0 | 0.00 | 0.00 | 0.00 | 74 | 1009.3 |
| 20260506123107 | 51 | 128 | 3.0 | 10.0 | 0.00 | 0.00 | 0.00 | 74 | 1009.1 |
| 20260506122607 | 52 | 115 | 3.0 | 7.0 | 0.00 | 0.00 | 0.00 | 75 | 1008.7 |
| 20260506122107 | 52 | 126 | 3.0 | 9.0 | 0.00 | 0.00 | 0.00 | 75 | 1008.3 |
| 20260506121607 | 52 | 132 | 3.0 | 5.0 | 0.00 | 0.00 | 0.00 | 75 | 1008.2 |
| 20260506121107 | 52 | 132 | 2.0 | 8.0 | 0.00 | 0.00 | 0.00 | 75 | 1008.1 |
| 20260506120607 | 52 | 134 | 1.0 | 4.0 | 0.00 | 0.00 | 0.00 | 75 | 1008.0 |
| 20260506120107 | 52 | 95 | 1.0 | 6.0 | 0.00 | 0.00 | 0.00 | 75 | 1007.9 |
| 20260506115607 | 52 | 171 | 2.0 | 4.0 | 0.00 | 0.00 | 0.00 | 75 | 1007.7 |
| 20260506115107 | 52 | 105 | 2.0 | 9.0 | 0.00 | 0.00 | 0.00 | 75 | 1007.6 |
| 20260506114607 | 52 | 134 | 3.0 | 8.0 | 0.00 | 0.00 | 0.00 | 75 | 1007.6 |
| 20260506114107 | 52 | 119 | 3.0 | 9.0 | 0.00 | 0.00 | 0.00 | 75 | 1007.4 |
| 20260506113607 | 52 | 136 | 4.0 | 6.0 | 0.00 | 0.00 | 0.00 | 75 | 1007.3 |
| 20260506113107 | 52 | 119 | 4.0 | 10.0 | 0.00 | 0.00 | 0.00 | 74 | 1007.4 |
| 20260506112607 | 52 | 122 | 5.0 | 9.0 | 0.00 | 0.00 | 0.00 | 74 | 1007.2 |
| 20260506112107 | 52 | 128 | 5.0 | 11.0 | 0.00 | 0.00 | 0.00 | 74 | 1007.3 |
| 20260506111607 | 53 | 124 | 3.0 | 12.0 | 0.00 | 0.00 | 0.00 | 74 | 1007.3 |
| 20260506111107 | 53 | 92 | 3.0 | 9.0 | 0.00 | 0.00 | 0.00 | 74 | 1007.2 |
| 20260506110608 | 53 | 126 | 3.0 | 8.0 | 0.00 | 0.00 | 0.00 | 74 | 1007.2 |
| 20260506110108 | 53 | 118 | 3.0 | 9.0 | 0.00 | 0.00 | 0.00 | 73 | 1007.1 |
| 20260506105608 | 53 | 82 | 3.0 | 5.0 | 0.00 | 0.00 | 0.00 | 73 | 1007.0 |
| 20260506105108 | 53 | 115 | 4.0 | 9.0 | 0.00 | 0.00 | 0.00 | 73 | 1007.0 |
| 20260506104608 | 53 | 108 | 3.0 | 10.0 | 0.00 | 0.00 | 0.00 | 73 | 1007.1 |